Location: Palm Bay
(27.9400°N, 80.7200°W)
Time: 13:02:12
(UTC-04:00)

Daily predictions for brighter satellites

Satellite Brightness Start Highest point End
(mag) Time Altitude Azimuth Time Altitude Azimuth Time Altitude Azimuth
EO 1 Del DPAF 4.1 20:20:18 10° N 20:24:01 55° WNW 20:27:45 10° SSW
Cosmos 1269 Rocket 4.4 20:20:43 10° NNW 20:26:00 71° WSW 20:31:15 10° S
Sakura Rocket 3.1 20:24:10 10° WSW 20:29:37 83° S 20:33:41 10° E
Cosmos 1633 Rocket 4.4 20:26:49 10° NNE 20:29:59 20° ENE 20:32:41 12° ESE
Cosmos 2221 3.8 20:26:05 10° SSW 20:30:10 46° W 20:34:16 10° N
ATLAS 3B CENTAUR R/B 4.1 20:16:42 10° WNW 20:34:55 59° SSW 20:41:24 12° SE
Cosmos 1340 2.6 20:31:40 10° S 20:35:26 82° E 20:39:13 10° N
Cosmos 2228 Rocket 4.4 20:35:53 11° SE 20:38:56 20° E 20:42:10 10° NE
Delta 128 4.1 20:34:11 10° W 20:39:19 76° S 20:44:14 16° ESE
H-2A R/B 4.4 20:36:05 10° SSW 20:39:29 35° W 20:42:56 10° NNW
SPOT 3 Rocket 4.3 20:34:50 10° S 20:39:53 55° WSW 20:44:58 10° NNW
HJ-1C 3.3 20:38:20 10° SSE 20:41:39 80° ENE 20:45:00 10° N
Fermi 3.9 20:40:30 10° WSW 20:44:36 59° S 20:47:23 19° E
SL-24 R/B - RUBIN 2 4.4 20:41:43 10° N 20:45:36 32° ENE 20:48:00 19° ESE
Thor Agena Rocket 3.5 20:40:32 10° NNE 20:45:47 72° ESE 20:51:03 10° S
In-Cosmos 22 Rocket 4.0 20:40:51 10° N 20:46:16 74° E 20:51:33 10° SSE
Stardust Del rocket 4.5 20:43:28 10° SW 20:46:24 28° SSE 20:49:05 18° ESE
XTE 3.8 20:45:32 10° SW 20:47:10 20° S 20:47:18 20° S
ATLAS 2AS CENTAUR R/B 4.0 20:41:52 10° N 20:48:06 26° NE 20:52:16 16° E
ASTRO E2 2.8 20:44:34 10° WSW 20:48:30 55° SSE 20:51:07 19° E
NOSS 3 (A) 4.3 20:47:40 10° SSW 20:50:30 87° WNW 20:53:16 10° NNE
OAO 2 Rocket 4.1 20:45:52 10° WNW 20:50:53 45° NNE 20:54:42 16° E
Cosmos 1328 Rocket 3.8 20:48:40 10° SSE 20:52:53 48° E 20:57:09 10° NNE
Cosmos 2154 Rocket 4.0 20:47:51 10° S 20:54:09 90° ENE 21:00:24 10° N
Cosmos 1805 Rocket 3.5 20:50:43 10° N 20:55:03 86° W 20:59:22 10° S
ATLAS CENTAUR R/B 2.0 20:51:49 10° SW 20:55:19 51° WNW 20:58:57 10° NNE
H-2A R/B 0.9 20:54:03 10° WNW 20:58:01 43° SSW 20:58:36 33° SSE
SL-16 R/B 3.7 21:01:33 17° E 21:01:33 17° E 21:03:52 10° ENE
Resurs 01 Rocket 2.1 21:02:01 26° SE 21:03:55 40° ENE 21:08:04 10° N
Meteor 2-15 4.4 20:59:05 10° N 21:05:13 85° E 21:11:19 10° S
Centaur D-1AR AC-41 4.3 20:52:03 10° WSW 21:06:36 38° S 21:09:06 25° SE
Timation 1 Rocket 4.4 21:01:21 10° N 21:07:13 57° ENE 21:10:41 25° SE
SJ-6B 3.4 21:03:43 10° S 21:07:44 60° W 21:11:41 10° NNW
OAO 3 Copernicus 4.2 21:04:31 10° WSW 21:09:34 87° NNW 21:13:03 20° ENE
Cosmos 1470 Rocket 4.3 21:09:15 10° NNE 21:13:12 32° E 21:13:19 32° E
Haruka 2.9 21:06:14 10° WNW 21:14:25 81° SSW 21:15:52 38° ESE
Cosmos 1939 Rocket 2.7 21:13:06 36° SE 21:14:28 65° ENE 21:18:19 10° N
deb Centaur AC-2 4.1 21:11:26 10° WNW 21:15:46 72° N 21:17:41 35° E
Meteor 2-3 Rocket 3.7 21:11:44 10° N 21:17:16 59° E 21:20:11 28° SSE
Cosmos 2341 Rocket 4.0 21:11:06 10° S 21:17:28 88° W 21:23:50 10° N
NOSS 0 Rocket 4.2 21:13:09 10° SSW 21:19:17 72° WNW 21:25:27 10° NNE
Meteor 2-10 Rocket 4.3 21:20:51 33° E 21:21:06 33° E 21:26:12 10° NNE
Cosmos 2218 Rocket 4.2 21:17:59 19° SSE 21:22:18 50° E 21:28:25 10° NNE
Cosmos 1980 3.9 21:20:23 10° SSW 21:26:02 71° WNW 21:31:43 10° NNE
USA 267 3.5 21:26:49 10° NE 21:32:59 44° SE 21:39:08 10° SSW
Cosmos 2366 rocket 4.0 21:31:03 32° SSE 21:33:49 57° E 21:39:55 10° NNE
H-2A R/B 3.8 21:36:33 16° NE 21:36:33 16° NE 21:38:26 10° NNE
ERS-2 3.7 21:34:33 18° SSW 21:36:38 33° W 21:39:58 10° NW
Cosmos 2333 Rocket 4.0 21:32:01 10° SW 21:37:01 32° WNW 21:42:01 10° N
Resurs 1-3 3.7 21:35:47 41° S 21:37:14 73° WSW 21:41:37 10° NNW
Cosmos 1371 Rocket 3.9 21:32:48 10° S 21:38:04 82° ESE 21:43:25 10° NNE
Cosmos 1151 Rocket 3.2 21:35:40 24° SSW 21:38:05 70° W 21:42:21 10° N
Cosmos 1455 4.1 21:35:15 10° SW 21:38:37 30° W 21:42:01 10° NNW
USA 186 4.3 21:40:39 14° WNW 21:40:39 14° WNW 21:41:17 10° NW
Cosmos 1408 4.2 21:36:22 10° N 21:38:11 26° NNE 21:38:11 26° NNE
Cosmos 220 Rocket 3.9 21:36:40 10° NNW 21:40:43 71° NE 21:40:43 71° NE
Cosmos 1933 Rocket 3.9 21:37:31 10° N 21:41:04 50° NE 21:41:04 50° NE
SL-8 Rocket 4.0 21:36:33 10° S 21:42:52 85° W 21:49:11 10° N
Cosmos 1844 Rocket 3.6 21:42:13 10° NNW 21:47:36 45° WSW 21:50:46 23° SSW
YAOGAN 6 4.2 21:48:32 27° SW 21:49:24 30° W 21:52:37 10° NW
Cosmos 2237 Rocket 3.4 21:48:13 10° SW 21:53:28 41° WNW 21:58:46 10° N
Cosmos 1844 4.3 21:48:57 10° NNW 21:54:30 53° WSW 21:56:42 34° SSW
Cosmos 2056 Rocket 3.6 21:57:10 35° SSW 21:59:32 79° WNW 22:04:58 10° NNE
NOAA 11 4.4 22:05:46 57° SSW 22:06:37 66° WSW 22:12:06 10° NNW
Cosmos 2098 Rocket 3.6 22:07:14 62° NW 22:07:14 62° NW 22:10:56 10° N
Cosmos 2278 Rocket 2.2 22:04:40 10° NNW 22:09:51 73° NNE 22:09:51 73° NNE
ATLAS 2A CENTAUR R/B 3.5 22:06:59 10° WSW 22:26:15 72° S 22:27:50 64° ESE
ATLAS 2AS CENTAUR R/B 3.1 22:32:04 10° NW 22:39:27 55° WSW 22:39:43 55° WSW
Resurs 01 Rocket 4.4 22:39:35 12° WSW 22:40:28 12° W 22:42:16 10° WNW
SL-16 R/B 3.3 22:43:10 39° W 22:43:40 40° WNW 22:48:58 10° N
ARGOS 4.4 22:48:17 37° NW 22:48:17 37° NW 22:51:39 10° NNW
Cosmos 2344 3.7 22:39:56 10° SW 22:47:42 70° WNW 22:55:32 10° NNE
H-2A R/B 4.4 23:17:10 19° NW 23:17:10 19° NW 23:18:47 10° NNW
USA 267 4.3 23:09:51 10° NNE 23:15:50 40° NW 23:21:47 10° WSW
